Content
SEND FEEDBACK

Daily
Averages
Monthly
Summary
United States of America

BEACON, NEW YORK


Home > North America > United States > New York
Elevation: 272 feet     Latitude: 41 31N     Longitude: 073 55W

WEATHER
 
SELECT A DAY
Number of Records: 194,591;   Date Range: 1/1/95 - 8/12/14
 
SHARE

PRINT THIS DATA

[ ← Previous Day ]
WEATHER ALMANAC - SEPTEMBER 15, 2013
[ Next Day → ]
[ °C ]   °F
Weather ElementAverageHighLow
Temperature55.6 °F68 °F (3:53 pm)42.1 °F (5:53 am)
Dewpoint46.6 °F54 °F (6:53 pm)39.9 °F (5:53 am)
Humidity75 %96 % (3:53 am)40 % (1:53 pm)
Barometer30.13 in30.20 in (8:53 am)30.06 in (7:53 pm)
Wind Speed0.7 mph6.9 mph (1:53 pm)
Weather ElementAverage
Visibility10 mi
Wind DirectionNNE (26.1 °)

Weather ElementTotal
Precipitation---
Heating Degree Days10 (Base 65)
Growing Degree Days5.1 (Base 50)
Averaged from 23 records on September 15, 2013
WEATHER CONDITIONS BREAKOUT
WIND DIRECTION BREAKOUT
WEATHER BY HOUR - SEPTEMBER 15, 2013
[ °C ]   °F
Local TimeTemperatureDewpointHumidityBarometerVisibilityWind DirectionWind SpeedGust SpeedPrecipitationEventsConditions
1:53 AM46.0 °F44.1 °F93 %30.13 in10.0 miCalmClear
2:53 AM46.0 °F44.1 °F93 %30.13 in10.0 miCalmClear
3:53 AM44.1 °F43.0 °F96 %30.14 in10.0 miCalmClear
4:53 AM43.0 °F41.0 °F93 %30.14 in10.0 miCalmClear
5:53 AM42.1 °F39.9 °F92 %30.16 in10.0 miCalmClear
6:53 AM42.1 °F39.9 °F92 %30.17 in10.0 miCalmClear
7:53 AM46.9 °F45.0 °F93 %30.18 in10.0 miCalmClear
8:53 AM51.1 °F46.9 °F86 %30.20 in10.0 miCalmClear
9:53 AM55.0 °F46.9 °F74 %30.20 in10.0 miCalmClear
10:53 AM59.0 °F46.0 °F62 %30.20 in10.0 miCalmClear
11:53 AM61.0 °F46.0 °F58 %30.18 in10.0 miCalmClear
12:53 PM64.0 °F44.1 °F48 %30.17 in10.0 miCalmClear
1:53 PM66.9 °F42.1 °F40 %30.14 in10.0 miWSW (240°)6.9 mphClear
2:53 PM66.9 °F46.0 °F47 %30.12 in10.0 miCalmClear
3:53 PM68.0 °F44.1 °F42 %30.09 in10.0 miCalmClear
4:53 PM66.9 °F46.9 °F49 %30.09 in10.0 miSouth (190°)4.6 mphClear
5:53 PM68.0 °F48.0 °F49 %30.07 in10.0 miSouth (170°)3.5 mphScattered Clouds
6:53 PM62.1 °F54.0 °F75 %30.07 in10.0 miCalmClear
7:53 PM59.0 °F54.0 °F83 %30.06 in10.0 miCalmClear
8:53 PM55.0 °F52.0 °F89 %30.08 in10.0 miCalmClear
9:53 PM55.0 °F52.0 °F89 %30.08 in10.0 miCalmClear
10:53 PM55.0 °F52.0 °F89 %30.07 in10.0 miCalmClear
11:53 PM55.0 °F53.1 °F93 %30.07 in10.0 miCalmClear
Hourly data recorded from KPOU, located miles away from Beacon, New York







STORIES FROM OUR PARTNERS